This is the latest recevied weather packets stored in our database for station/object N2PUI. If no packets are shown the sender has not sent any weather packets the latest 10 day(s).
| Time | Temp. | Humidity | Pressure | Rain* | Wind** | Luminosity | Snow |
|---|---|---|---|---|---|---|---|
| 1777844557 | 12.78° C | 43% | 1010.8 hPa | 0 mm | - | 285 W/m² | - |
| 1777844255 | 12.78° C | 43% | 1010.8 hPa | 0 mm | - | 155 W/m² | - |
| 1777843952 | 12.22° C | 43% | 1010.9 hPa | 0 mm | - | 346 W/m² | - |
| 1777843649 | 12.78° C | 44% | 1010.8 hPa | 0 mm | - | 176 W/m² | - |
| 1777843347 | 12.78° C | 44% | 1010.7 hPa | 0 mm | - | 223 W/m² | - |
| 1777843044 | 12.78° C | 44% | 1010.8 hPa | 0 mm | - | 201 W/m² | - |
| 1777842740 | 12.22° C | 45% | 1010.9 hPa | 0 mm | - | 337 W/m² | - |
| 1777842435 | 11.67° C | 45% | 1010.9 hPa | 0 mm | - | 281 W/m² | - |
| 1777842133 | 11.67° C | 45% | 1011 hPa | 0 mm | - | 221 W/m² | - |
| 1777841829 | 11.67° C | 46% | 1010.9 hPa | 0 mm | - | 150 W/m² | - |
| 1777841525 | 11.67° C | 45% | 1011.1 hPa | 0 mm | - | 104 W/m² | - |
| 1777841221 | 11.67° C | 43% | 1010.7 hPa | 0 mm | - | 107 W/m² | - |
| 1777840919 | 11.67° C | 43% | 1010.7 hPa | 0 mm | - | 89 W/m² | - |
| 1777840616 | 11.67° C | 42% | 1010.7 hPa | 0 mm | - | 128 W/m² | - |
| 1777840314 | 12.78° C | 41% | 1010.9 hPa | 0 mm | - | 180 W/m² | - |
| 1777840010 | 12.22° C | 41% | 1010.7 hPa | 0 mm | - | 239 W/m² | - |
| 1777839708 | 12.78° C | 40% | 1010.8 hPa | 0 mm | - | 650 W/m² | - |
| 1777839406 | 12.22° C | 41% | 1010.8 hPa | 0 mm | - | 394 W/m² | - |
| 1777839103 | 12.78° C | 40% | 1011 hPa | 0 mm | - | 748 W/m² | - |
| 1777838799 | 12.78° C | 39% | 1010.9 hPa | 0 mm | - | 715 W/m² | - |
| 1777838496 | 12.22° C | 40% | 1010.9 hPa | 0 mm | - | 369 W/m² | - |
| 1777838193 | 12.22° C | 41% | 1010.9 hPa | 0 mm | - | 208 W/m² | - |
| 1777837890 | 11.67° C | 40% | 1010.8 hPa | 0 mm | - | 259 W/m² | - |
| 1777837587 | 11.67° C | 40% | 1011.3 hPa | 0 mm | - | 264 W/m² | - |
| 1777837282 | 11.67° C | 40% | 1011 hPa | 0 mm | - | 228 W/m² | - |
* Rain latest hour (hover to see other rain measurements)
** Current wind speed in m/s (hover to see current wind gust speed)